Date String (YYYY-MM-DD hh:mm:ss) UTC,Instrument flags,absolute air pressure of the measurement (hPa),sample flow rate (lpm),inlet stack bypass flow (lpm),air temperature of the measurement (°C),ambient temperature measured by the external sensor (°C),aerosol sample conditioner tube jacket temperature (°C),OPC LED temperature (°C),internal box temperature (°C),relative humidity of the measurement (%),span deviation,mass concentration of particles derived from Lorenz-Mie calculation of OPC scattering (μg/m³),mass concentration of particles derived from Lorenz-Mie calculation of OPC scattering (μg/m³),mass concentration of particles derived from Lorenz-Mie calculation of OPC scattering (μg/m³)
DateTimeUTC,F1_M11,P_M11,Q1_M11,Q2_M11,T1_M11,T2_M11,T3_M11,T4_M11,T5_M11,U1_M11,ZSPAN_M11,X0_M11,X2_M11,X1_M11
2024-04-16 17:00:00,SystemResetWarning,0822.0,5.00,000.00,024.5,023.8,000.0,032.8,026.3,015.8,0000.0,0006.03,0001.60,0000.99
2024-04-16 17:01:00,SystemResetWarning,0821.9,5.00,000.00,024.5,023.8,000.0,032.8,026.3,016.1,0000.0,0005.84,0001.56,0001.00
2024-04-16 17:02:00,SystemResetWarning,0822.0,5.00,000.00,024.5,023.8,000.0,032.8,026.4,015.8,0000.0,0005.97,0001.52,0001.00
2024-04-16 17:03:00,SystemResetWarning,0822.0,5.00,000.00,024.5,023.8,000.0,032.8,026.3,015.8,0000.0,0005.85,0001.45,0000.99
2024-04-16 17:04:00,SystemResetWarning,0822.1,5.00,000.00,024.5,023.9,000.0,032.9,026.4,015.7,0000.0,0005.97,0001.43,0000.97
2024-04-16 17:05:00,SystemResetWarning,0822.1,5.00,000.00,024.5,023.9,000.0,032.9,026.3,015.4,0000.0,0005.87,0001.37,0000.95
2024-04-16 17:06:00,SystemResetWarning,0822.1,5.00,000.00,024.6,023.9,000.0,032.9,026.4,015.6,0000.0,0004.11,0001.37,0000.93
2024-04-16 17:07:00,SystemResetWarning,0822.1,5.01,000.00,024.6,023.9,000.0,032.9,026.4,015.9,0000.0,0003.52,0001.36,0000.92
2024-04-16 17:08:00,SystemResetWarning,0822.1,4.99,000.00,024.6,023.9,000.0,032.9,026.4,015.6,0000.0,0003.28,0001.38,0000.91
2024-04-16 17:09:00,SystemResetWarning,0822.1,5.00,000.00,024.6,023.9,000.0,032.9,026.4,015.7,0000.0,0003.28,0001.40,0000.92
2024-04-16 17:10:00,SystemResetWarning,0822.1,4.99,000.00,024.6,023.9,000.0,032.9,026.4,015.7,0000.0,0003.21,0001.38,0000.91
2024-04-16 17:11:00,SystemResetWarning,0822.1,4.99,000.00,024.6,024.0,000.0,033.0,026.5,015.7,0000.0,0003.15,0001.42,0000.91
2024-04-16 17:12:00,SystemResetWarning,0822.1,5.00,000.00,024.6,024.0,000.0,033.0,026.5,015.2,0000.0,0002.96,0001.42,0000.91
2024-04-16 17:13:00,SystemResetWarning,0822.1,5.01,000.00,024.6,024.0,000.0,033.0,026.5,015.3,0000.0,0003.88,0001.42,0000.90
2024-04-16 17:14:00,SystemResetWarning,0822.1,5.01,000.00,024.6,024.0,000.0,033.0,026.5,015.1,0000.0,0003.84,0001.43,0000.90
2024-04-16 17:15:00,SystemResetWarning,0822.1,5.00,000.00,024.7,024.0,000.0,033.0,026.5,015.1,0000.0,0003.57,0001.41,0000.91
2024-04-16 17:16:00,SystemResetWarning,0822.1,4.99,000.00,024.7,024.0,000.0,033.0,026.5,015.1,0000.0,0003.54,0001.40,0000.91
2024-04-16 17:17:00,SystemResetWarning,0822.1,5.00,000.00,024.7,024.0,000.0,033.0,026.5,015.4,0000.0,0003.51,0001.38,0000.91
2024-04-16 17:18:00,SystemResetWarning,0822.2,4.99,000.00,024.7,024.0,000.0,033.0,026.5,015.6,0000.0,0003.54,0001.35,0000.90
2024-04-16 17:19:00,SystemResetWarning,0822.2,5.00,000.00,024.7,024.0,000.0,033.0,026.6,015.5,0000.0,0003.51,0001.32,0000.87
2024-04-16 17:20:00,SystemResetWarning,0822.4,5.00,000.00,024.7,024.0,000.0,033.0,026.6,015.6,0000.0,0003.34,0001.25,0000.83
2024-04-16 17:21:00,SystemResetWarning,0822.4,5.00,000.00,024.7,024.0,000.0,033.1,026.6,015.2,0000.0,0003.24,0001.21,0000.79
2024-04-16 17:22:00,SystemResetWarning,0822.4,5.00,000.00,024.7,024.0,000.0,033.1,026.5,015.0,0000.0,0003.01,0001.09,0000.76
2024-04-16 17:23:00,SystemResetWarning,0822.4,5.01,000.00,024.7,024.0,000.0,033.1,026.6,015.0,0000.0,0003.51,0001.04,0000.73
2024-04-16 17:24:00,SystemResetWarning,0822.4,4.99,000.00,024.7,024.0,000.0,033.1,026.6,014.6,0000.0,0003.42,0001.04,0000.72
2024-04-16 17:25:00,SystemResetWarning,0822.4,5.00,000.00,024.7,024.0,000.0,033.1,026.6,014.3,0000.0,0003.58,0001.02,0000.71
2024-04-16 17:26:00,SystemResetWarning,0822.4,5.00,000.00,024.7,024.0,000.0,033.1,026.6,014.7,0000.0,0003.57,0001.00,0000.69
2024-04-16 17:27:00,SystemResetWarning,0822.4,4.99,000.00,024.8,024.0,000.0,033.1,026.6,014.8,0000.0,0003.54,0000.98,0000.67
2024-04-16 17:28:00,SystemResetWarning,0822.4,5.00,000.00,024.8,024.0,000.0,033.1,026.6,014.8,0000.0,0003.51,0000.96,0000.65
2024-04-16 17:29:00,SystemResetWarning,0822.4,5.00,000.00,024.8,024.0,000.0,033.1,026.6,014.7,0000.0,0003.51,0000.96,0000.64
2024-04-16 17:30:00,SystemResetWarning,0822.5,5.01,000.00,024.8,024.1,000.0,033.1,026.6,014.6,0000.0,0003.46,0000.94,0000.64
2024-04-16 17:31:00,SystemResetWarning,0822.4,5.01,000.00,024.8,024.1,000.0,033.1,026.6,014.6,0000.0,0003.46,0000.95,0000.62
2024-04-16 17:32:00,SystemResetWarning,0822.5,4.99,000.00,024.8,024.1,000.0,033.1,026.6,014.4,0000.0,0003.56,0000.94,0000.62
2024-04-16 17:33:00,SystemResetWarning,0822.5,4.99,000.00,024.8,024.1,000.0,033.1,026.6,014.6,0000.0,0004.07,0000.97,0000.62
2024-04-16 17:34:00,SystemResetWarning,0822.4,5.01,000.00,024.8,024.1,000.0,033.2,026.6,014.8,0000.0,0003.43,0000.98,0000.61
2024-04-16 17:35:00,SystemResetWarning,0822.4,5.01,000.00,024.8,024.1,000.0,033.2,026.6,014.9,0000.0,0002.50,0000.96,0000.61
2024-04-16 17:36:00,SystemResetWarning,0822.4,4.99,000.00,024.8,024.1,000.0,033.2,026.7,015.0,0000.0,0002.21,0000.98,0000.61
2024-04-16 17:37:00,SystemResetWarning,0822.4,4.99,000.00,024.8,024.1,000.0,033.2,026.7,014.5,0000.0,0002.80,0001.00,0000.61
2024-04-16 17:38:00,SystemResetWarning,0822.4,5.01,000.00,024.9,024.1,000.0,033.2,026.7,014.2,0000.0,0002.92,0001.04,0000.62
2024-04-16 17:39:00,SystemResetWarning,0822.4,5.01,000.00,024.9,024.1,000.0,033.2,026.7,014.3,0000.0,0002.94,0001.05,0000.62
2024-04-16 17:40:00,SystemResetWarning,0822.4,5.00,000.00,024.9,024.2,000.0,033.2,026.7,014.6,0000.0,0002.80,0001.01,0000.62
2024-04-16 17:41:00,SystemResetWarning,0822.5,5.00,000.00,024.9,024.2,000.0,033.2,026.7,014.7,0000.0,0002.92,0001.04,0000.63
2024-04-16 17:42:00,SystemResetWarning,0822.4,4.99,000.00,024.9,024.2,000.0,033.2,026.7,014.5,0000.0,0004.13,0001.09,0000.65
2024-04-16 17:43:00,SystemResetWarning,0822.4,5.00,000.00,024.9,024.2,000.0,033.2,026.7,014.3,0000.0,0004.27,0001.08,0000.65
2024-04-16 17:44:00,SystemResetWarning,0822.5,5.01,000.00,024.9,024.2,000.0,033.2,026.7,014.3,0000.0,0003.84,0001.08,0000.65
2024-04-16 17:45:00,SystemResetWarning,0822.5,5.01,000.00,024.9,024.2,000.0,033.3,026.7,014.3,0000.0,0003.85,0001.07,0000.66
2024-04-16 17:46:00,SystemResetWarning,0822.5,5.01,000.00,024.9,024.2,000.0,033.3,026.7,014.3,0000.0,0003.86,0001.07,0000.66
2024-04-16 17:47:00,SystemResetWarning,0822.7,5.00,000.00,024.9,024.2,000.0,033.3,026.8,014.5,0000.0,0003.80,0001.06,0000.66
2024-04-16 17:48:00,SystemResetWarning,0822.6,4.99,000.00,025.0,024.2,000.0,033.3,026.8,014.5,0000.0,0003.31,0001.07,0000.66
2024-04-16 17:49:00,SystemResetWarning,0822.7,4.99,000.00,025.0,024.3,000.0,033.3,026.8,014.3,0000.0,0003.25,0001.05,0000.66
2024-04-16 17:50:00,SystemResetWarning,0822.5,5.00,000.00,025.0,024.3,000.0,033.3,026.8,014.1,0000.0,0003.30,0001.07,0000.67
2024-04-16 17:51:00,SystemResetWarning,0822.5,5.00,000.00,025.0,024.3,000.0,033.3,026.8,014.1,0000.0,0003.33,0001.08,0000.66
2024-04-16 17:52:00,SystemResetWarning,0822.6,5.00,000.00,025.0,024.3,000.0,033.3,026.8,014.3,0000.0,0003.21,0001.05,0000.66
2024-04-16 17:53:00,SystemResetWarning,0823.0,5.00,000.00,025.0,024.3,000.0,033.3,026.8,014.3,0000.0,0002.03,0001.01,0000.66
2024-04-16 17:54:00,SystemResetWarning,0822.5,5.01,000.00,025.1,024.4,000.0,033.4,026.9,014.4,0000.0,0001.75,0001.00,0000.67
2024-04-16 17:55:00,SystemResetWarning,0822.6,5.01,000.00,025.1,024.4,000.0,033.4,026.9,014.7,0000.0,0001.74,0001.00,0000.67
2024-04-16 17:56:00,SystemResetWarning,0822.6,5.00,000.00,025.1,024.4,000.0,033.4,026.9,014.2,0000.0,0001.77,0001.02,0000.68
2024-04-16 17:57:00,SystemResetWarning,0822.9,5.00,000.00,025.1,024.4,000.0,033.4,026.9,014.2,0000.0,0001.80,0001.04,0000.68
2024-04-16 17:58:00,SystemResetWarning,0823.0,4.99,000.00,025.1,024.5,000.0,033.4,027.0,014.1,0000.0,0001.89,0001.05,0000.68
2024-04-16 17:59:00,SystemResetWarning,0822.9,5.00,000.00,025.1,024.5,000.0,033.4,027.0,014.6,0000.0,0001.87,0001.07,0000.70
